Regional Weather Roundup
Issued by NWS

Home | Current Version | Previous Version | Text Only | Print | Product List | Glossary Off
Versions: 1 2 3 4 5 6 7 8 9 10 11 12 13 14 15 16 17 18 19 20 21 22 23 24 25 26 27 28 29 30 31 32 33 34 35 36 37 38 39 40 41 42 43 44 45 46 47 48 49 50

423
ASUS45 KTFX 230910
RWRMT
MONTANA REGIONAL WEATHER ROUNDUP
NATIONAL WEATHER SERVICE GREAT FALLS MT
300 AM MDT MON OCT 23 2017

NOTE: "FAIR" INDICATES FEW OR NO CLOUDS BELOW 12000 FEET WITH NO
SIGNIFICANT WEATHER AND/OR OBSTRUCTIONS TO VISIBILITY.

MTZ001>007-043-231000-
WEST OF THE DIVIDE

CITY           SKY/WX    TMP DP  RH WIND       PRES   REMARKS
KALISPELL      PTCLDY    37  32  82 SW5       30.38R
MISSOULA       MOCLDY    37  35  92 N6        30.45R
BUTTE          CLOUDY    38  28  67 CALM      30.41R
MULLAN PASS    MOCLDY    31  25  78 NW8       30.41R WCI  23
ANACONDA         N/A     41  27  56 SW13      30.42R
DEER LODGE       N/A     37  34  87 N5        30.44R
EUREKA           N/A     46  30  53 MISG      30.36R
HAMILTON         N/A     45  36  70 NW6       30.48R
LIBBY            N/A     36  32  87 CALM      30.38R
RONAN            N/A     41  31  68 E3        30.42R
$$

MTZ008-052>055-231000-
SOUTHWEST MONTANA

CITY           SKY/WX    TMP DP  RH WIND       PRES   REMARKS
BOZEMAN        CLOUDY    40  26  57 CALM      30.38R
DILLON         CLOUDY    42  23  46 SW12      30.42R
W YELLOWSTONE  CLOUDY    34  23  64 SW6       30.45R WCI  29
ENNIS          CLOUDY    37  25  60 SE8       30.48R WCI  31
THREE FORKS      N/A     47  27  46 W12       30.33S
TWIN BRIDGES     N/A     44  21  40 CALM      30.36R
$$

MTZ009-010-012-014-046-048-049-054-231000-
EAST SLOPES AND CENTRAL MONTANA

CITY           SKY/WX    TMP DP  RH WIND       PRES   REMARKS
CUT BANK       PTCLDY    42  26  53 W23G30    30.21R
GREAT FALLS    CLEAR     45  21  38 W22G32    30.24R
MALMSTROM AFB  CLEAR     46  22  39 W20G26    30.25R
HELENA         CLOUDY    44  33  65 W7G18     30.37R
BOWMANS CRNR     N/A     42  20  41 W26G36    30.25R
CHOTEAU          N/A     45  23  42 W26G33    30.25R
FAIRFIELD        N/A     43  21  42 W20       30.25R
POWER            N/A     41  23  49 W14       30.24R
RAYNESFORD       N/A     45  22  40 SW20G28   30.25R
ULM              N/A     44  23  44 SW14G26   30.27R
$$

MTZ011-013-016-021-045-047-050-051-231000-
NORTH CENTRAL MONTANA

CITY           SKY/WX    TMP DP  RH WIND       PRES   REMARKS
HAVRE          CLEAR     37  29  72 SW14      30.16R WCI  28
LEWISTOWN      CLEAR     37  21  52 NW3       30.24R
N BAR RANCH      N/A     41  19  42 W15G24    30.25R
CHINOOK          N/A     45  27  49 W15       30.14R
DENTON           N/A     44  23  45 W21       30.19R
GEYSER           N/A     40  23  50 W22       30.24R
GRASS RANGE      N/A     43  22  43 W25G32    30.19R
JUDITH GAP       N/A     44  15  31 NW31G37   30.23R
STANFORD         N/A     44  19  37 W22G32    30.24R
WINIFRED         N/A     46  22  39 W21G35    30.21R
$$

MTZ017>020-022>027-061-062-231000-
NORTHEAST MONTANA

CITY           SKY/WX    TMP DP  RH WIND       PRES   REMARKS
GLASGOW        MOCLDY    43  33  68 W12       30.06R
JORDAN           N/A     49  26  41 W17G25    30.12R
SIDNEY         CLOUDY    47  36  65 W24G31    29.98R
WOLF POINT     PTCLDY    44  36  73 W14       30.03R
MALTA          CLEAR     43  28  56 NW15G23   30.12R
PLENTYWOOD       N/A     41  32  70 W18       29.95R
POPLAR           N/A     45  36  70 W15G23    30.01R
SCOBEY           N/A     41  28  60 W10       29.97R
$$

MTZ028>42-056>058-231000-
SOUTHCENTRAL AND SOUTHEAST MONTANA

CITY           SKY/WX    TMP DP  RH WIND       PRES   REMARKS
BAKER          LGT RAIN  44  37  76 NW17G26   30.07R
BILLINGS       CLOUDY    46  24  42 W20       30.25R
LIVINGSTON     CLOUDY    43  22  43 W17       30.33R
MILES CITY     PTCLDY    47  28  47 W17       30.12R
BIG TIMBER     CLEAR     43  23  45 W21       30.34R
EKALAKA          N/A     43  24  47 W17       30.07R
FORSYTH          N/A     46  23  39 W9        30.17R
HARLOWTON        N/A     41  24  51 W26G38    30.26R
LAUREL           N/A     48  25  40 W17G26    30.28R
$$

REGIONAL REPORTS...DAKOTAS

CITY           SKY/WX    TMP DP  RH WIND       PRES   REMARKS
WILLISTON        N/A    N/A N/A N/A MISG      29.94R
MINOT          MOCLDY    44  35  70 W25G37    29.81R
DICKINSON      PTCLDY    44  35  70 W20       29.93R
BEACH          MOCLDY    45  34  65 W21G28    30.04R
CROSBY         CLOUDY    41  37  87 NW13      29.91R
TIOGA          CLOUDY    43  34  70 NW17G24   29.89R
BISMARCK       PTCLDY    50  37  61 W16G23    29.85R
GRAND FORKS    CLOUDY    53  42  66 W15       29.61R
FARGO          CLOUDY    53  44  71 W15       29.67R
BUFFALO SD       N/A     43  32  65 NW21      29.99R
RAPID CITY     CLEAR     51  21  30 NW31G45   30.11R
$$

REGIONAL REPORTS...WYOMING/IDAHO/WASHINGTON

CITY           SKY/WX    TMP DP  RH WIND       PRES   REMARKS
GILLETTE       CLEAR     44  18  35 NW23G31   30.21R
SHERIDAN       CLOUDY    44  23  43 NW16      30.24R
BUFFALO WY     CLOUDY    41  21  44 N13       30.24R
CODY           CLOUDY    46  19  34 NW8       30.30R
YELLOWSTONE LA   N/A     30  21  69 VRB7      30.45R WCI  23
IDAHO FALLS    CLOUDY    42  38  85 S8        30.44R
SALMON         CLOUDY    35  29  78 SE5       30.48R
BOISE          PTCLDY    43  41  93 CALM      30.49R FOG
SPOKANE        PTCLDY    42  33  70 W12       30.45R
$$

REGIONAL REPORTS...ALBERTA

CITY           SKY/WX    TMP DP  RH WIND       PRES   REMARKS
EDMONTON       PTCLDY    37  27  65 W8        30.01R WCI  31
LETHBRIDGE     CLEAR     41  25  52 W16       30.18R
MEDICINE HAT   CLEAR     37  25  60 W9        30.11R WCI  31
$$

REGIONAL REPORTS...SASKATCHEWAN

CITY           SKY/WX    TMP DP  RH WIND       PRES   REMARKS
SWIFT CURRENT  CLOUDY    39  30  70 W14       30.00R WCI  31
REGINA         CLOUDY    37  36  93 W16       29.91R WCI  28
SASKATOON      MOCLDY    37  34  87 W10       29.90R WCI  30
$$




USA.gov is the U.S. government's official web portal to all federal, state and local government web resources and services.